FENGYUN 1C DEB, 31627

Orbit data source: Space-Track

FENGYUN 1C DEB, 31627 is space debris in SSO originally from a launch on Mon, 10 May 1999 UTC launched from the Taiyaun Space Center, China (TSC). Fengyun 1C debris stems from the Chinese weather satellite Fengyun-1C, which was intentionally destroyed by a Chinese anti-satellite missile in 2007. This event dramatically increased the amount of space debris, with thousands of trackable fragments posing hazards to satellites and human spaceflight. The Fengyun 1C debris cloud has become a focal point in discussions about space sustainability and the need for international regulations to prevent the creation of new debris.

Loading next visibility...
Identifier
31627, 1999-025CAH
Orbit
SSO
Country
Flag of CNCN / PRC
Related business
Manufacturer
Unknown
Mission
Spacecraft
Bus & Motor
Unknown
Mass
Unknown
Launch date (UTC)
1999-05-10 (27 years ago)
Launch vehicle
Unknown
Launch site
Taiyaun Space Center, China (TSC)
Object type
Payload
Rocket body
Debris
Shape & HBR
Unknown shape, 0.1 m
Radar Cross Section
Small (<0.1 m²)

Expand to show TLE details & history
Last TLE update: 1 day ago

TLE from 1 day ago
0 FENGYUN 1C DEB
1 31627U 99025CAH 26207.40272399  .00002809  00000-0  95044-3 0  9991
2 31627  98.5109 257.7564 0050303 200.7454 159.1692 14.36885581680064
Epoch: 2026-07-26T09:39Z
TLE epoch observation values (Epoch: 2026-07-26T09:39:55.352Z)
Latitude
0.00003°
Longitude
168.6746°
Altitude
805.382 km
Speed
7.433 km/s
True Right ascension
17h 11m 01s
True Declination
0° 00' 00"
Sunlit
Object was in full shadow at epoch
Visualization orbit readout
Latitude
Unknown
Longitude
Unknown
Altitude
Unknown
Speed
Unknown
Apparent Right ascension
Unknown
Apparent Declination
Unknown
Sunlit
N/A
Visualization observer readout
Local Sidereal Time
00:03:20
Azimuth
Unknown
Elevation
Unknown
Doppler factor
Unknown
Orbital elements
Apogee altitude
801.87 km
Perigee altitude
729.997 km
Semi-major axis
7,144.071 km
Eccentricity
0.00503
Inclination
98.5109°
RAAN
257.7564°
Arg. of periapsis
200.7454°
True anomaly
159.37299°
Mean anomaly
159.1692°
Eccentric anomaly
159.27121°
Mean motion
3.59438 °/min
Orbital period
100.16 mins
BSTAR
0.00095044
Loading maneuver chart data...
Computing Atmospheric mass density...
Loading historical data...
Loading historical data...
Loading historical data...
Loading historical data...
Loading historical data...
Loading historical data...
Loading historical data...

Documentation

Showing up to 5 results
|